Regional Weather Roundup
Issued by NWS Spokane, WA

Home | Current Version | Previous Version | Text Only | Print | Product List | Glossary On
Versions: 1 2 3 4 5 6 7 8 9 10 11 12 13 14 15 16 17 18 19 20 21 22 23 24 25 26 27 28 29 30 31 32 33 34 35 36 37 38 39 40 41 42 43 44 45 46 47 48 49 50
000
NZUS01 KOTX 211910
RWROTX
EASTERN WASHINGTON/NORTHERN IDAHO ROUNDUP
NATIONAL WEATHER SERVICE, SPOKANE WA
1100 AM PST FRI NOV 21 2014

Note: "fair" indicated few or no clouds below 12,000 feet with no
significant weather and/or obstructions to visibility.

...NORTHEAST WASHINGTON AND NORTHERN IDAHO PANHANDLE...

CITY           SKY/WX    TMP DP  RH WIND       PRES   REMARKS
SPOKANE INTL   CLOUDY    38  33  82 SE6       29.84F
SPOKANE DOWNTO CLOUDY    37  32  82 CALM      29.86F HAZE
COEUR D ALENE  CLOUDY    39  37  93 S6        29.85F
DEER PARK      CLOUDY    35  33  92 NE6       29.86F FOG
SANDPOINT      CLOUDY    34  34 100 N3        29.87F FOG

...SOUTHEAST WASHINGTON AND SOUTHERN IDAHO PANHANDLE...

CITY           SKY/WX    TMP DP  RH WIND       PRES   REMARKS
WALLA WALLA    PTSUNNY   37  33  85 CALM      29.86F FOG
PULLMAN/MOSCOW CLOUDY    40  35  83 E12       29.88F
LEWISTON       CLOUDY    43  36  76 E8        29.90F
LOWELL           N/A     36  32  85 CALM      29.99F

...COLUMBIA BASIN...

CITY           SKY/WX    TMP DP  RH WIND       PRES   REMARKS
EPHRATA        CLOUDY    31  28  89 E3        29.88F FOG
MOSES LAKE     CLOUDY    31  28  89 CALM      29.89F FOG
TRI CITIES     CLOUDY    33  32  96 W5        29.92F FOG     WCI  29
HERMISTON      CLOUDY    33  30  88 W3        29.88F FOG
PENDLETON      PTSUNNY   36  32  85 CALM      29.83F

...EAST SLOPES CASCADES...

CITY           SKY/WX    TMP DP  RH WIND       PRES   REMARKS
THE DALLES     LGT RAIN  34  30  85 CALM      29.90F FOG
YAKIMA         MIX PCPN  32  26  78 CALM      29.87F
ELLENSBURG     CLOUDY    33  26  75 CALM      29.82F HAZE
WENATCHEE      CLOUDY    34  26  72 SE5       29.87F HAZE    WCI  30
OMAK           LGT SNOW  33  27  78 SE5       29.87F WCI  29

...SOUTHERN BRITISH COLUMBIA...

CITY           SKY/WX    TMP DP  RH WIND       PRES   REMARKS
PENTICTON      CLOUDY    39  28  65 S16G28    29.81F

...WESTERN MONTANA...

CITY           SKY/WX    TMP DP  RH WIND       PRES   REMARKS
MISSOULA       CLOUDY    32  27  81 CALM      29.91F

...NEIGHBORING CITIES...

CITY           SKY/WX    TMP DP  RH WIND       PRES   REMARKS
SEATTLE        LGT RAIN  51  46  83 SE7       29.67F
CALGARY        PTSUNNY   48  21  34 W17G28    29.55F



USA.gov is the U.S. government's official web portal to all federal, state and local government web resources and services.